User: anonymous   Login
Location: Haulchin
(50.3172°N, 3.4360°E)
Time: 16:38:41
(UTC+00:00)
Language:

Cosmos 1707 - Orbit

View from above orbital plane
View from above orbital plane
View from above satellite
View from above satellite

Ground track
Ground track

The orbit data is extracted from the following two-line orbital elements,

1 16326U 85113A   24199.90820291  .00019189  00000-0  66975-3 0  9996
2 16326  82.5023 173.7268 0005493 349.2085  10.9037 15.29466384109486
Epoch (UTC): 17 July 2024 21:47:48
Eccentricity: 0.0005493
inclination: 82.5023°
perigee height: 473 km
apogee height: 481 km
right ascension of ascending node: 173.7268°
argument of perigee: 349.2085°
revolutions per day: 15.29466384
mean anomaly at epoch: 10.9037°
orbit number at epoch: 10948

The dashed part of the orbit path shows where the satellite is in the earth's shadow,  

DLR